Location: Cahas Mountain Overlook
(37.0833°N, 80.1000°W)
Time: 19:06:48
(UTC-04:00)

Explorer 7 - Pass Details

Date: 17 February 2026
Orbit: 430 x 541 km, 50.2° (Epoch: 13 March)

Event Time Altitude Azimuth Distance (km) Brightness Sun altitude
Rises 18:13:25 0° 305° (NW) 2,489 10.9 -2.9°
Reaches altitude 10° 18:17:09 10° 345° (NNW) 1,649 9.3 -3.7°
Maximum altitude 18:18:08 11° 0° (N) 1,606 9.1 -3.9°
Drops below altitude 10° 18:19:08 10° 16° (NNE) 1,668 9.0 -4.0°
Enters shadow 18:22:13 - 49° (NE) 2,346 9.5 -4.6°
Sets 18:23:00 0° 54° (NE) 2,588 - -4.8°
